Regional Weather Roundup
Issued by NWS

Home | Current Version | Previous Version | Graphics & Text | Print | Product List | Glossary On
Versions: 1 2 3 4 5 6 7 8 9 10 11 12 13 14 15 16 17 18 19 20 21 22 23 24 25 26 27 28 29 30 31 32 33 34 35 36 37 38 39 40 41 42 43 44 45 46 47 48 49 50
000
ASUS45 KCYS 302110
RWRWY

WYOMING REGIONAL WEATHER ROUNDUP
NATIONAL WEATHER SERVICE CHEYENNE WY
300 PM MDT TUE SEP 30 2014

NOTE:  "FAIR" INDICATES FEW OR NO CLOUDS BELOW 12,000 FEET
WITH NO SIGNIFICANT WEATHER AND/OR OBSTRUCTIONS TO VISIBILITY.

WYZ001-302200-
YELLOWSTONE NATIONAL PARK

CITY           SKY/WX    TMP DP  RH WIND       PRES   REMARKS
LK YELLOWSTONE   N/A     43  36  76 VRB5      29.91F
W YELLOWSTONE  NOT AVBL

$$
WYZ002>013-054>058-071-098>099-302200-
NORTHERN WYOMING

CITY           SKY/WX    TMP DP  RH WIND       PRES   REMARKS
JACKSON        RAIN      46  45  93 S9        29.89F
CODY           CLOUDY    55  45  67 E8        29.74F
GREYBULL       CLOUDY    61  42  49 SE3       29.71F
WORLAND        PTSUNNY   61  42  49 VRB5      29.72F
SHERIDAN       CLOUDY    60  39  45 NW30G36   29.66S
BUFFALO        CLOUDY    55  41  59 N17G28    29.71S
GILLETTE       CLOUDY    59  43  55 NW13G24   29.65F
HULETT         CLOUDY    52  50  93 W9G16     29.64
NEWCASTLE      FAIR      59  45  58 NW17G25   29.66

$$
WYZ014>020-022>026-101>103-302200-
CENTRAL WYOMING

CITY           SKY/WX    TMP DP  RH WIND       PRES   REMARKS
BIG PINEY      CLOUDY    51  35  54 NW15      29.93S
PINEDALE       MOCLDY    46  37  71 NW10      29.93S
DUBOIS         MOCLDY    50  34  53 NW17G23   29.85F
LANDER         PTSUNNY   61  35  37 VRB3      29.76F
RIVERTON       PTSUNNY   62  35  36 W16G23    29.77F
CASPER         CLOUDY    62  34  35 W15G23    29.74F
DOUGLAS        MOSUNNY   66  36  32 W26G32    29.71F

$$
WYZ021-027>030-104>119-302200-
SOUTHERN WYOMING

CITY           SKY/WX    TMP DP  RH WIND       PRES   REMARKS
EVANSTON       PTSUNNY   51  40  65 SW16      29.99F
KEMMERER       MOCLDY    43  39  87 W17G29    29.97S
FORT BRIDGER   CLOUDY    51  41  70 W24G36    30.02R
ROCK SPRINGS   PTSUNNY   49  42  77 W20       29.93F THUNDER
DIXON            N/A    N/A N/A N/A W10       29.97F
RAWLINS        CLOUDY    51  37  58 W18G32    29.88F
SARATOGA       CLOUDY    46  37  71 SW16G28   29.93F
LARAMIE        CLOUDY    50  35  56 W18G30    29.88F
CHEYENNE       CLOUDY    62  34  35 W26G32    29.83S
TORRINGTON     MOSUNNY   66  39  37 W18G26    29.70F
PINE BLUFFS    FAIR      64  32  29 W22G29    29.80R

$$



USA.gov is the U.S. government's official web portal to all federal, state and local government web resources and services.